Location: Lafig�re
(44.4503°N, 4.0357°E)
Time: 05:37:53
(UTC+00:00)

Transit 2A - All Passes

Search period start: 28 January 2021 00:00
Search period end: 07 February 2021 00:00
Orbit: 599 x 960 km, 66.7° (Epoch: 27 January)

Date Brightness Start Highest point End Pass type
(mag) Time Alt. Az. Time Alt. Az. Time Alt. Az.
28 Jan - 01:53:09 10° S 01:58:32 38° ESE 02:03:29 10° NE night (unlit)
28 Jan - 03:36:24 10° WSW 03:41:44 38° NW 03:46:37 10° NNE visible
28 Jan - 10:38:36 10° NNW 10:42:55 39° NE 10:47:00 10° ESE daylight
28 Jan - 12:22:15 10° WNW 12:25:47 23° WSW 12:29:13 10° SSW daylight
29 Jan - 01:19:40 10° SSE 01:24:29 27° ESE 01:28:59 10° NE night (unlit)
29 Jan - 03:01:50 10° SW 03:07:28 52° NW 03:12:35 10° NNE visible
29 Jan - 04:49:29 10° WNW 04:51:46 12° NNW 04:53:57 10° N visible
29 Jan - 10:04:37 10° NNW 10:08:36 28° NE 10:12:22 10° ESE daylight
29 Jan - 11:47:42 10° NW 11:51:47 35° WSW 11:55:44 10° S daylight
30 Jan - 00:46:33 10° SSE 00:50:28 19° ESE 00:54:12 10° ENE night (unlit)
30 Jan - 02:27:26 10° SW 02:33:15 73° NW 02:38:30 10° NNE visible
30 Jan - 04:13:55 10° WNW 04:17:14 16° NW 04:20:24 10° N visible
30 Jan - 09:30:44 10° N 09:34:12 21° NE 09:37:31 10° E daylight
30 Jan - 11:13:19 10° NW 11:17:44 55° WSW 11:21:56 10° SSE daylight
31 Jan - 00:14:08 10° SE 00:16:31 13° ESE 00:18:50 10° E night (unlit)
31 Jan - 01:53:14 10° SSW 01:59:04 82° ESE 02:04:21 10° NE night (unlit)
31 Jan - 03:38:40 10° W 03:42:47 21° NW 03:46:38 10° N visible
31 Jan - 08:56:59 10° N 08:59:45 15° NE 09:02:25 10° ENE daylight
31 Jan - 10:39:05 10° NNW 10:43:37 86° WSW 10:47:56 10° SSE daylight
01 Feb - 01:19:13 10° SSW 01:24:55 58° ESE 01:30:07 10° NE night (unlit)
01 Feb - 03:03:41 10° WSW 03:08:23 27° NW 03:12:46 10° NNE visible
01 Feb - 08:23:32 10° N 08:25:15 12° NNE 08:26:54 10° NE daylight
01 Feb - 10:04:56 10° NNW 10:09:25 63° NE 10:13:43 10° SE daylight
01 Feb - 11:49:41 10° WNW 11:51:56 14° WSW 11:54:08 10° SW daylight
02 Feb - 00:45:25 10° S 00:50:49 41° ESE 00:55:46 10° NE night (unlit)
02 Feb - 02:28:52 10° WSW 02:34:04 36° NW 02:38:48 10° NNE visible
02 Feb - 09:30:51 10° NNW 09:35:11 42° NE 09:39:18 10° ESE daylight
02 Feb - 11:14:38 10° WNW 11:17:59 21° WSW 11:21:16 10° SSW daylight
03 Feb - 00:11:53 10° SSE 00:16:46 29° ESE 00:21:17 10° NE night (unlit)
03 Feb - 01:54:16 10° SW 01:59:46 49° NW 02:04:48 10° NNE night (unlit)
03 Feb - 03:42:16 10° NW 03:44:07 12° NNW 03:45:54 10° NNW visible
03 Feb - 08:56:52 10° NNW 09:00:52 29° NE 09:04:42 10° ESE daylight
03 Feb - 10:40:01 10° NW 10:44:00 32° WSW 10:47:50 10° S daylight
03 Feb - 23:38:40 10° SSE 23:42:44 20° ESE 23:46:34 10° ENE night (unlit)
04 Feb - 01:19:49 10° SW 01:25:33 68° NW 01:30:43 10° NNE night (unlit)
04 Feb - 03:06:32 10° WNW 03:09:35 15° NW 03:12:29 10° N visible
04 Feb - 08:22:58 10° N 08:26:30 22° NE 08:29:53 10° E daylight
04 Feb - 10:05:37 10° NW 10:09:57 50° WSW 10:14:07 10° SSE daylight
04 Feb - 23:06:05 10° SE 23:08:46 14° ESE 23:11:21 10° ENE night (unlit)
05 Feb - 00:45:35 10° SSW 00:51:22 87° ESE 00:56:35 10° NNE night (unlit)
05 Feb - 02:31:14 10° W 02:35:07 19° NW 02:38:46 10° N visible
05 Feb - 07:49:12 10° N 07:52:04 16° NE 07:54:50 10° ENE daylight
05 Feb - 09:31:21 10° NW 09:35:50 79° WSW 09:40:08 10° SSE daylight
06 Feb - 00:11:31 10° SSW 00:17:13 62° ESE 00:22:21 10° NE night (unlit)
06 Feb - 01:56:11 10° W 02:00:43 25° NW 02:04:55 10° N night (unlit)
06 Feb - 07:15:40 10° N 07:17:34 12° NNE 07:19:24 10° ENE daylight
06 Feb - 08:57:12 10° NNW 09:01:40 68° ENE 09:05:58 10° SE daylight
06 Feb - 10:42:16 10° W 10:44:08 13° WSW 10:45:58 10° SW daylight
06 Feb - 23:37:40 10° S 23:43:06 43° ESE 23:48:03 10° NE night (unlit)
